Time,TemperatureF,DewpointF,PressureIn,WindDirection,WindDirectionDegrees,WindSpeedMPH,WindSpeedGustMPH,Humidity,HourlyPrecipIn,Conditions,Clouds,dailyrainin,SoftwareType,DateUTC
2013-06-26 00:00:00,61.0,60.0,29.87,South,185,0.0,-999.0,95,-99.99,,,0.36,weatherlink.com 1.10,2013-06-26 07:00:00,
2013-06-26 00:15:00,60.6,59.0,29.87,South,185,0.0,-999.0,94,-99.99,,,0.36,weatherlink.com 1.10,2013-06-26 07:15:00,
2013-06-26 00:30:00,60.5,59.0,29.87,WSW,242,4.0,-999.0,95,-99.99,,,0.36,weatherlink.com 1.10,2013-06-26 07:30:00,
2013-06-26 00:44:00,60.3,59.0,29.87,East,98,2.0,-999.0,95,-99.99,,,0.36,weatherlink.com 1.10,2013-06-26 07:44:00,
2013-06-26 01:00:00,61.0,60.0,29.87,South,179,4.0,-999.0,95,-99.99,,,0.00,weatherlink.com 1.10,2013-06-26 08:00:00,
2013-06-26 01:15:00,61.9,61.0,29.87,SSE,165,1.0,-999.0,96,-99.99,,,0.00,weatherlink.com 1.10,2013-06-26 08:15:00,
2013-06-26 01:30:00,61.7,60.0,29.87,WSW,246,2.0,-999.0,95,-99.99,,,0.00,weatherlink.com 1.10,2013-06-26 08:30:00,
2013-06-26 01:45:00,61.2,60.0,29.87,SSW,208,2.0,-999.0,94,-99.99,,,0.00,weatherlink.com 1.10,2013-06-26 08:45:00,
2013-06-26 01:59:00,61.2,60.0,29.87,SSW,208,0.0,-999.0,94,-99.99,,,0.00,weatherlink.com 1.10,2013-06-26 08:59:00,
2013-06-26 02:16:00,60.8,59.0,29.87,SSW,195,0.0,-999.0,94,-99.99,,,0.00,weatherlink.com 1.10,2013-06-26 09:16:00,
2013-06-26 02:29:00,61.1,60.0,29.88,SE,144,1.0,-999.0,95,-99.99,,,0.00,weatherlink.com 1.10,2013-06-26 09:29:00,
2013-06-26 02:45:00,61.5,60.0,29.87,SE,145,1.0,-999.0,95,-99.99,,,0.00,weatherlink.com 1.10,2013-06-26 09:45:00,
2013-06-26 03:00:00,61.9,61.0,29.88,South,171,4.0,-999.0,95,-99.99,,,0.00,weatherlink.com 1.10,2013-06-26 10:00:00,
2013-06-26 03:16:00,62.1,61.0,29.88,SE,138,5.0,-999.0,95,-99.99,,,0.00,weatherlink.com 1.10,2013-06-26 10:16:00,
2013-06-26 03:30:00,62.9,62.0,29.88,South,176,2.0,-999.0,95,-99.99,,,0.00,weatherlink.com 1.10,2013-06-26 10:30:00,
2013-06-26 03:45:00,63.5,62.0,29.88,SSE,148,4.0,-999.0,95,-99.99,,,0.00,weatherlink.com 1.10,2013-06-26 10:45:00,
2013-06-26 04:00:00,63.1,61.0,29.89,SSE,167,4.0,-999.0,94,-99.99,,,0.00,weatherlink.com 1.10,2013-06-26 11:00:00,
2013-06-26 04:14:00,63.3,61.0,29.89,SSE,165,7.0,-999.0,93,-99.99,,,0.00,weatherlink.com 1.10,2013-06-26 11:14:00,
2013-06-26 04:30:00,63.3,61.0,29.89,South,173,6.0,-999.0,93,-99.99,,,0.00,weatherlink.com 1.10,2013-06-26 11:30:00,
2013-06-26 04:45:00,63.1,61.0,29.89,SSE,150,4.0,-999.0,93,-99.99,,,0.00,weatherlink.com 1.10,2013-06-26 11:45:00,
2013-06-26 05:00:00,62.8,61.0,29.89,SE,132,4.0,-999.0,93,-99.99,,,0.00,weatherlink.com 1.10,2013-06-26 12:00:00,
2013-06-26 05:15:00,62.7,61.0,29.90,SE,144,7.0,-999.0,93,-99.99,,,0.00,weatherlink.com 1.10,2013-06-26 12:15:00,
2013-06-26 05:29:00,62.5,61.0,29.90,SSE,153,5.0,-999.0,93,-99.99,,,0.00,weatherlink.com 1.10,2013-06-26 12:29:00,
2013-06-26 05:45:00,62.4,60.0,29.90,SE,128,2.0,-999.0,93,-99.99,,,0.00,weatherlink.com 1.10,2013-06-26 12:45:00,
2013-06-26 06:00:00,62.4,60.0,29.91,South,175,5.0,-999.0,93,-99.99,,,0.00,weatherlink.com 1.10,2013-06-26 13:00:00,
2013-06-26 06:15:00,62.4,61.0,29.91,South,173,2.0,-999.0,94,-99.99,,,0.00,weatherlink.com 1.10,2013-06-26 13:15:00,
2013-06-26 06:29:00,62.3,61.0,29.91,South,177,5.0,-999.0,94,-99.99,,,0.00,weatherlink.com 1.10,2013-06-26 13:29:00,
2013-06-26 06:45:00,62.1,60.0,29.91,SSE,157,2.0,-999.0,94,-99.99,,,0.00,weatherlink.com 1.10,2013-06-26 13:45:00,
2013-06-26 07:00:00,62.6,61.0,29.91,ESE,114,7.0,-999.0,94,-99.99,,,0.00,weatherlink.com 1.10,2013-06-26 14:00:00,
2013-06-26 07:16:00,62.8,61.0,29.91,South,175,2.0,-999.0,94,-99.99,,,0.00,weatherlink.com 1.10,2013-06-26 14:16:00,
2013-06-26 07:30:00,63.2,62.0,29.92,SSE,168,2.0,-999.0,94,-99.99,,,0.00,weatherlink.com 1.10,2013-06-26 14:30:00,
2013-06-26 07:45:00,62.6,61.0,29.93,SSE,159,5.0,-999.0,93,-99.99,,,0.00,weatherlink.com 1.10,2013-06-26 14:45:00,
2013-06-26 08:00:00,62.6,61.0,29.93,South,174,1.0,-999.0,94,-99.99,,,0.00,weatherlink.com 1.10,2013-06-26 15:00:00,
2013-06-26 08:15:00,63.1,61.0,29.94,SSW,210,2.0,-999.0,94,-99.99,,,0.00,weatherlink.com 1.10,2013-06-26 15:15:00,
2013-06-26 08:30:00,62.4,61.0,29.95,South,184,0.0,-999.0,94,-99.99,,,0.00,weatherlink.com 1.10,2013-06-26 15:30:00,
2013-06-26 08:46:00,62.9,62.0,29.95,SSW,206,8.0,-999.0,95,-99.99,,,0.00,weatherlink.com 1.10,2013-06-26 15:46:00,
2013-06-26 09:00:00,63.0,61.0,29.96,SSE,165,5.0,-999.0,94,-99.99,,,0.00,weatherlink.com 1.10,2013-06-26 16:00:00,
2013-06-26 09:14:00,63.1,61.0,29.96,SSW,192,5.0,-999.0,94,-99.99,,,0.00,weatherlink.com 1.10,2013-06-26 16:14:00,
2013-06-26 09:30:00,64.0,62.0,29.96,South,188,4.0,-999.0,94,-99.99,,,0.00,weatherlink.com 1.10,2013-06-26 16:30:00,
2013-06-26 09:46:00,64.7,63.0,29.96,South,182,5.0,-999.0,94,-99.99,,,0.00,weatherlink.com 1.10,2013-06-26 16:46:00,
2013-06-26 10:01:00,64.8,63.0,29.96,South,169,5.0,-999.0,92,-99.99,,,0.00,weatherlink.com 1.10,2013-06-26 17:01:00,
2013-06-26 10:16:00,65.1,63.0,29.96,SSW,196,3.0,-999.0,92,-99.99,,,0.00,weatherlink.com 1.10,2013-06-26 17:16:00,
2013-06-26 10:31:00,66.2,64.0,29.97,SW,221,10.0,-999.0,91,-99.99,,,0.00,weatherlink.com 1.10,2013-06-26 17:31:00,
2013-06-26 10:46:00,66.7,64.0,29.97,SW,218,4.0,-999.0,90,-99.99,,,0.00,weatherlink.com 1.10,2013-06-26 17:46:00,
2013-06-26 11:00:00,67.3,64.0,29.97,SSE,161,6.0,-999.0,88,-99.99,,,0.00,weatherlink.com 1.10,2013-06-26 18:00:00,
2013-06-26 11:14:00,67.8,64.0,29.98,SSE,158,4.0,-999.0,87,-99.99,,,0.00,weatherlink.com 1.10,2013-06-26 18:14:00,
2013-06-26 11:30:00,68.2,64.0,29.98,SSW,213,8.0,-999.0,86,-99.99,,,0.00,weatherlink.com 1.10,2013-06-26 18:30:00,
2013-06-26 11:45:00,68.9,64.0,29.98,South,185,6.0,-999.0,84,-99.99,,,0.00,weatherlink.com 1.10,2013-06-26 18:45:00,
2013-06-26 12:00:00,69.3,64.0,29.98,SSE,161,2.0,-999.0,84,-99.99,,,0.00,weatherlink.com 1.10,2013-06-26 19:00:00,
2013-06-26 12:14:00,71.9,67.0,29.98,South,186,6.0,-999.0,84,-99.99,,,0.00,weatherlink.com 1.10,2013-06-26 19:14:00,
2013-06-26 12:31:00,72.9,66.0,29.98,SSW,198,4.0,-999.0,79,-99.99,,,0.00,weatherlink.com 1.10,2013-06-26 19:31:00,
2013-06-26 12:45:00,74.4,65.0,29.98,SSE,156,4.0,-999.0,73,-99.99,,,0.00,weatherlink.com 1.10,2013-06-26 19:45:00,
2013-06-26 13:00:00,75.2,66.0,29.98,SSW,205,7.0,-999.0,72,-99.99,,,0.00,weatherlink.com 1.10,2013-06-26 20:00:00,
2013-06-26 13:15:00,73.1,64.0,29.98,SSW,204,11.0,-999.0,74,-99.99,,,0.00,weatherlink.com 1.10,2013-06-26 20:15:00,
2013-06-26 13:30:00,71.8,65.0,29.98,SSW,202,12.0,-999.0,78,-99.99,,,0.00,weatherlink.com 1.10,2013-06-26 20:30:00,
2013-06-26 13:47:00,72.4,64.0,29.98,SW,227,10.0,-999.0,76,-99.99,,,0.00,weatherlink.com 1.10,2013-06-26 20:47:00,
2013-06-26 14:00:00,71.6,63.0,29.98,South,191,5.0,-999.0,75,-99.99,,,0.00,weatherlink.com 1.10,2013-06-26 21:00:00,
2013-06-26 14:14:00,70.0,63.0,29.98,SSW,196,6.0,-999.0,79,-99.99,,,0.00,weatherlink.com 1.10,2013-06-26 21:14:00,
2013-06-26 14:31:00,72.2,65.0,29.98,SW,227,9.0,-999.0,77,-99.99,,,0.00,weatherlink.com 1.10,2013-06-26 21:31:00,
2013-06-26 14:45:00,71.1,64.0,29.98,SW,224,12.0,-999.0,77,-99.99,,,0.00,weatherlink.com 1.10,2013-06-26 21:45:00,
2013-06-26 15:01:00,70.4,64.0,29.98,SW,219,13.0,-999.0,79,-99.99,,,0.00,weatherlink.com 1.10,2013-06-26 22:01:00,
2013-06-26 15:16:00,70.1,63.0,29.98,SSW,209,12.0,-999.0,79,-99.99,,,0.00,weatherlink.com 1.10,2013-06-26 22:16:00,
2013-06-26 15:30:00,70.5,63.0,29.98,SSW,201,15.0,-999.0,78,-99.99,,,0.00,weatherlink.com 1.10,2013-06-26 22:30:00,
2013-06-26 15:45:00,70.4,64.0,29.97,SW,229,12.0,-999.0,79,-99.99,,,0.00,weatherlink.com 1.10,2013-06-26 22:45:00,
2013-06-26 16:00:00,70.6,63.0,29.97,SSW,213,8.0,-999.0,78,-99.99,,,0.00,weatherlink.com 1.10,2013-06-26 23:00:00,
2013-06-26 16:16:00,71.5,64.0,29.97,SSW,202,5.0,-999.0,76,-99.99,,,0.00,weatherlink.com 1.10,2013-06-26 23:16:00,
2013-06-26 16:29:00,68.3,60.0,29.97,WSW,252,5.0,-999.0,76,-99.99,,,0.00,weatherlink.com 1.10,2013-06-26 23:29:00,
2013-06-26 16:44:00,66.1,59.0,29.97,WNW,302,3.0,-999.0,78,-99.99,,,0.00,weatherlink.com 1.10,2013-06-26 23:44:00,
2013-06-26 16:59:00,67.3,61.0,29.97,SSW,207,3.0,-999.0,81,-99.99,,,0.00,weatherlink.com 1.10,2013-06-26 23:59:00,
2013-06-26 17:14:00,67.3,60.0,29.97,WSW,248,4.0,-999.0,78,-99.99,,,0.00,weatherlink.com 1.10,2013-06-27 00:14:00,
2013-06-26 17:29:00,68.7,62.0,29.97,SW,229,2.0,-999.0,79,-99.99,,,0.00,weatherlink.com 1.10,2013-06-27 00:29:00,
2013-06-26 17:44:00,68.5,61.0,29.97,WNW,298,5.0,-999.0,77,-99.99,,,0.00,weatherlink.com 1.10,2013-06-27 00:44:00,
2013-06-26 17:59:00,67.6,61.0,29.96,NNW,327,5.0,-999.0,78,-99.99,,,0.00,weatherlink.com 1.10,2013-06-27 00:59:00,
2013-06-26 18:14:00,66.9,61.0,29.96,NW,315,1.0,-999.0,80,-99.99,,,0.00,weatherlink.com 1.10,2013-06-27 01:14:00,
2013-06-26 18:30:00,68.8,62.0,29.96,SW,232,2.0,-999.0,78,-99.99,,,0.00,weatherlink.com 1.10,2013-06-27 01:30:00,
2013-06-26 18:45:00,68.8,61.0,29.96,SW,229,2.0,-999.0,77,-99.99,,,0.00,weatherlink.com 1.10,2013-06-27 01:45:00,
2013-06-26 19:00:00,67.9,61.0,29.96,South,190,0.0,-999.0,79,-99.99,,,0.00,weatherlink.com 1.10,2013-06-27 02:00:00,
2013-06-26 19:15:00,68.2,61.0,29.96,South,190,3.0,-999.0,77,-99.99,,,0.00,weatherlink.com 1.10,2013-06-27 02:15:00,
2013-06-26 19:30:00,67.5,61.0,29.96,SSW,192,1.0,-999.0,79,-99.99,,,0.00,weatherlink.com 1.10,2013-06-27 02:30:00,
2013-06-26 19:45:00,66.8,60.0,29.97,SSW,192,1.0,-999.0,80,-99.99,,,0.00,weatherlink.com 1.10,2013-06-27 02:45:00,
2013-06-26 20:00:00,66.4,61.0,29.97,SSW,192,2.0,-999.0,82,-99.99,,,0.00,weatherlink.com 1.10,2013-06-27 03:00:00,
2013-06-26 20:15:00,65.2,60.0,29.97,SSW,192,2.0,-999.0,83,-99.99,,,0.00,weatherlink.com 1.10,2013-06-27 03:15:00,
2013-06-26 20:30:00,63.2,59.0,29.97,SSW,192,2.0,-999.0,86,-99.99,,,0.00,weatherlink.com 1.10,2013-06-27 03:30:00,
2013-06-26 20:45:00,62.1,59.0,29.97,SSW,192,0.0,-999.0,88,-99.99,,,0.00,weatherlink.com 1.10,2013-06-27 03:45:00,
2013-06-26 21:00:00,60.9,58.0,29.97,SSW,192,1.0,-999.0,89,-99.99,,,0.00,weatherlink.com 1.10,2013-06-27 04:00:00,
2013-06-26 21:15:00,60.4,58.0,29.98,SSW,192,0.0,-999.0,90,-99.99,,,0.00,weatherlink.com 1.10,2013-06-27 04:15:00,
2013-06-26 21:30:00,60.2,58.0,29.98,SSW,192,0.0,-999.0,91,-99.99,,,0.00,weatherlink.com 1.10,2013-06-27 04:30:00,
2013-06-26 21:45:00,60.0,57.0,29.99,SSW,192,0.0,-999.0,91,-99.99,,,0.00,weatherlink.com 1.10,2013-06-27 04:45:00,
2013-06-26 22:00:00,60.0,58.0,29.99,SSW,192,0.0,-999.0,92,-99.99,,,0.00,weatherlink.com 1.10,2013-06-27 05:00:00,
2013-06-26 22:15:00,59.6,57.0,30.00,SSW,192,0.0,-999.0,92,-99.99,,,0.00,weatherlink.com 1.10,2013-06-27 05:15:00,
2013-06-26 22:30:00,59.3,57.0,30.00,SSW,192,1.0,-999.0,92,-99.99,,,0.00,weatherlink.com 1.10,2013-06-27 05:30:00,
2013-06-26 22:45:00,59.0,57.0,30.00,SSW,192,1.0,-999.0,93,-99.99,,,0.00,weatherlink.com 1.10,2013-06-27 05:45:00,
2013-06-26 23:00:00,59.0,57.0,30.00,SSW,192,1.0,-999.0,94,-99.99,,,0.00,weatherlink.com 1.10,2013-06-27 06:00:00,
2013-06-26 23:15:00,58.9,57.0,30.00,SSW,192,0.0,-999.0,94,-99.99,,,0.00,weatherlink.com 1.10,2013-06-27 06:15:00,
2013-06-26 23:30:00,59.0,57.0,30.01,SSW,192,1.0,-999.0,94,-99.99,,,0.00,weatherlink.com 1.10,2013-06-27 06:30:00,
2013-06-26 23:45:00,59.0,57.0,30.01,SSW,192,0.0,-999.0,94,-99.99,,,0.00,weatherlink.com 1.10,2013-06-27 06:45:00,